Tracking 20942 objects as of 15-Jul-2020
HD Live streaming from Space Station
objects crossing your sky now

DMSP 5D-2 F9 DEB

Track DMSP 5D-2 F9 DEB now!
10-day predictions


NORAD ID: 39046
Int'l Code: 1988-006M
Perigee: 788.5 km
Apogee: 910.1 km
Inclination: 98.7 °
Period: 101.8 minutes
Semi major axis: 7220 km
RCS: 0.0338 m2 (small)
Launch date: February 3, 1988
Source: United States (US)
Launch site: AIR FORCE WESTERN TEST RANGE (AFWTR)

Note: This is SATELLITE DEBRIS
aabbcc
Your satellite tracking list
Your tracking list is empty




NASA's NSSDC Master Catalog

Two Line Element Set (TLE):
1 39046U 88006M   20196.03320552  .00000272  00000-0  15647-3 0  9999
2 39046  98.6620  41.0720 0084196  76.0459  77.7043 14.15052333389676
Source of the keplerian elements: AFSPC